SL-14 DEB, 45289

Orbit data source: Space-Track

SL-14 DEB, 45289 is space debris in LEO originally from a launch on Thu, 15 Aug 1991 UTC launched from the Plesetsk Missile And Space Complex (PKMTR). Debris objects in space refer to the collection of defunct objects orbiting the Earth. Examples of debris include non-operational satellites, rocket bodies, and fragments generated from explosions, collisions, or faulty payload assembly.

Loading next visibility...
Identifier
45289, 1991-056AB
Orbit
LEO
Last TLE update
16 hours ago
Origin
Manufacturer
Unknown
Mission
Spacecraft
Bus & Motor
Unknown
Mass
Unknown
Launch date (UTC)
1991-08-15 (34 years ago)
Launch vehicle
Unknown
Launch site
Plesetsk Missile And Space Complex (PKMTR)
Object type
Payload
Rocket body
Debris
Shape & HBR
Unknown
Radar Cross Section
Medium (>0.1 m² and <1 m²)

Expand to show TLE details & history

TLE from 16 hours ago
0 SL-14 DEB
1 45289U 91056AB  25181.78398907  .00000999  00000-0  38948-2 0  9998
2 45289  82.5369 106.1605 0179739 325.8239  33.1396 12.82989414251191
Epoch: 2025-06-30T18:48Z
TLE epoch observation values (Epoch: 2025-06-30T18:48:56.655Z)
Latitude
-0.00012°
Longitude
-95.16441°
Altitude
1,216.974 km
Speed
7.3 km/s
True Right ascension
07h 04m 38s
True Declination
0° 00' 00"
Sunlit
Object was in daylight at epoch
Visualization orbit readout
Latitude
48.48679°
Longitude
75.93174°
Altitude
1,471.742 km
Speed
7.069 km/s
Apparent Right ascension
14h 31m 39s
Apparent Declination
21° 03' 41"
Sunlit
Object is in daylight
Visualization observer readout
Local Sidereal Time
22:06:48
Azimuth
301.201° NW
Elevation
-3.332°
Doppler factor
1
Orbital elements
Apogee altitude
1,465.253 km
Perigee altitude
1,188.279 km
Semi-major axis
7,704.903 km
Eccentricity
0.01797
Inclination
82.5369°
RAAN
106.1605°
Arg. of periapsis
325.8239°
True anomaly
Unknown
Mean anomaly
33.1396°
Eccentric anomaly
Unknown
Mean motion
3.20917 °/min
Orbital period
112.18 mins
BSTAR
0.0038948
Loading maneuver chart data...
Loading SW <> Apogee altitude chart data...
Loading historical data...
Loading historical data...
Loading historical data...
Loading historical data...
Loading historical data...
Loading historical data...
Loading historical data...

SL-14 DEB Visibility forecast

Observer location: undefined°, undefined°

Span
Click to sort rows by Start time (UTC) header in descending order
Start Az.
Max El. time (UTC)
Max El. Az.
Max El.
End time (UTC)
End Az.
14 mins2025-07-01 19:14:21.383Z168.746° S2025-07-01 19:21:21.383Z77.216° E41.292°2025-07-01 19:28:21.383Z14.696° NNE
10 mins2025-07-01 21:10:21.383Z249.803° W2025-07-01 21:14:21.383Z288.329° WNW23.006°2025-07-01 21:20:21.383Z341.843° N
11 mins2025-07-02 05:07:21.383Z24.335° NE2025-07-02 05:12:21.383Z65.248° ENE21.438°2025-07-02 05:18:21.383Z112.546° SE
15 mins2025-07-02 06:59:21.383Z348.515° N2025-07-02 07:06:21.383Z274.822° WNW44.255°2025-07-02 07:14:21.383Z182.311° SSW
6 mins2025-07-02 08:55:21.383Z304.78° NW2025-07-02 08:58:21.383Z282.868° WNW13.641°2025-07-02 09:01:21.383Z261.327° W
|